SCP
0 0 0 0 0 0 0 0 0 0 0 0 0 0 0 0 0 0 0 0 0 0 0 0 0 0 0 0 0 0 0 0 0 0 0 1 0 0 0 0 0 0 0 0
0 0 0 0 0 0 0 0 0 0 0 0 0 0 0 0 0 0 0 0 0 0 0 0 0 0 0 0 0 0 0 0 0 0 0 0 0 0 0 0 0 0 0 0
0 0 0 0 0 0 0 0 0 0 0 0 0 0 0 0 0 0 0 0 0 0 0 0 0 0 0 0 0 0 0 0 0 0 0 0 0 0 0 0 0 0 0 0
0 0 0 0 0 0 0 0 0 0 0 0 0 0 0 0 0 0 0 0 0 0 0 0 0 0 0 0 0 0 0 0 0 0 0 0 0 0 0 0 0 0 0 0
0 0 0 0 0 0 0 0 0 0 0 0 0 0 0 0 0 0 0 0 0 0 0 0 0 0 0 0 0 0 0 0 0 0 0 0 0 0 0 0 0 0 0 0
0 0 0 0 0 0 0 0 0 0 0 0 0 0 0 0 0 0 0 0 0 0 0 0 0 0 0 0 0 0 0 0 0 0 0 0 0 0 0 0 0 0 0 0
0 0 0 0 0 0 0 0 0 0 0 0 0 0 0 0 0 0 0 0 0 0 0 0 0 0 0 0 0 0 0 0 0 0 0 0 0 0 0 0 0 0 0 0
-0 0 0 0 0 0 0 0 0 0 0 0 0 0 0 0 0 0 0 0 0 0 0 0 0 0 0 0 0 0 0 0 0 0 0 0 0 0 0 0 1 1 0 0
0 -0 0 0 0 0 0 0 0 0 0 0 0 0 0 0 0 0 0 0 0 0 0 0 0 0 0 0 0 0 0 0 0 0 0 0 0 0 0 0 1 1 0 0
0 0 0 0 0 0 0 0 0 0 0 0 0 0 0 0 0 0 0 0 0 0 0 0 0 0 0 0 0 0 0 0 0 0 0 0 0 0 0 0 0 1 1 1
0 0 0 0 0 -0 0 0 0 0 0 0 0 0 0 0 0 0 0 0 0 0 0 0 0 0 0 0 0 0 0 0 0 0 0 0 0 0 0 0 0 0 1 1
0 0 0 0 0 0 0 0 0 0 0 0 0 0 0 0 0 0 0 0 -0 0 0 0 0 0 0 0 0 0 0 0 0 0 0 0 0 0 0 0 0 0 0 0
0 0 0 0 0 0 0 0 0 0 0 0 0 0 0 0 0 0 0 -0 0 0 0 0 0 -0 -0 0 0 0 0 0 0 0 0 0 0 0 0 0 0 0 0 0
0 0 0 0 0 0 0 0 0 0 0 0 0 0 0 0 0 0 0 0 0 0 0 0 0 0 0 0 0 0 0 0 0 0 0 0 0 0 0 0 0 0 0 0
0 0 0 0 0 0 0 0 0 0 0 0 0 0 0 0 0 0 0 0 0 0 0 0 0 0 0 0 0 0 0 0 0 0 0 0 0 0 0 0 0 0 0 0
0 0 0 0 0 0 0 -0 0 0 0 0 0 0 0 0 0 0 0 0 0 0 0 0 0 0 0 0 0 0 0 0 0 0 0 0 0 0 0 0 0 0 0 0
0 0 0 0 0 0 0 0 0 0 0 0 0 0 0 0 0 0 0 0 0 0 0 0 0 0 0 0 0 0 0 0 0 0 0 0 0 0 0 0 0 0 0 0
0 0 0 0 0 0 0 0 0 0 0 0 0 0 0 0 0 0 0 0 0 0 0 0 0 0 0 0 0 0 0 0 0 0 0 0 0 0 0 0 0 0 0 0
0 0 0 0 0 0 -0 0 0 0 -0 0 0 0 0 0 0 0 0 0 0 0 0 0 0 0 0 0 0 0 0 0 0 0 0 0 0 0 0 0 0 0 0 0
0 0 0 0 0 0 0 0 0 0 -0 0 0 0 0 0 0 0 0 0 0 0 0 0 0 0 0 0 0 0 0 0 0 0 0 0 0 0 0 0 0 0 0 0
0 0 0 0 0 0 0 0 0 0 0 0 0 0 0 0 0 0 0 0 0 0 0 0 0 0 0 0 0 0 0 0 0 0 0 0 0 -0 -0 0 0 0 0 0
0 0 0 0 0 0 0 0 0 0 0 0 0 0 0 0 0 0 0 0 0 0 0 0 0 0 0 0 0 0 0 0 0 0 0 0 0 0 -0 -0 -0 0 0 0
0 0 0 0 0 0 0 0 0 0 0 0 0 0 0 0 0 0 0 0 0 0 0 0 0 0 0 0 0 0 0 0 0 0 0 0 0 0 0 -0 -0 -0 -0 0
0 0 0 0 0 0 0 0 0 0 0 0 0 0 0 0 0 0 0 0 0 0 0 0 0 0 0 0 0 0 0 0 0 0 0 0 0 0 0 0 -0 -0 -0 -0
0 0 0 0 0 0 0 0 0 0 0 0 0 0 0 0 0 0 0 0 0 0 0 0 0 0 0 0 0 0 0 0 0 0 0 0 0 0 0 0 0 0 0 0
0 0 0 0 0 0 0 0 0 0 0 0 0 0 0 0 0 0 0 0 0 0 0 0 0 0 0 0 0 0 0 0 0 0 0 0 0 0 0 0 0 0 -0 -0
Wind_Speed_500mb
12 11 14 19 23 30 30 34 33 29 7 12 30 39 37 41 45 42 43 46 47 47 40 39 38 36 37 37 40 50 51 52 55 59 64 68 79 79 73 76 76 76 72 68
15 18 18 6 11 20 25 32 40 37 36 20 34 49 44 43 47 55 57 60 60 55 50 46 47 46 45 41 40 41 45 52 58 60 65 72 72 84 86 84 81 81 75 79
13 19 7 12 13 20 28 29 29 30 21 28 33 50 47 47 63 67 66 65 63 60 58 54 48 45 43 41 42 49 49 48 54 60 62 65 66 65 76 87 86 83 83 83
8 10 12 19 27 26 32 29 23 24 24 23 4 20 29 8 12 18 29 32 38 41 35 27 26 31 31 28 33 45 52 55 60 58 65 69 78 78 78 82 92 94 89 90
17 17 18 22 19 16 25 13 18 25 28 30 37 24 23 33 28 22 22 22 7 1 4 8 6 6 10 13 22 29 41 55 66 70 73 69 78 82 77 80 85 92 93 91
28 24 14 19 22 23 21 19 26 24 20 20 35 31 25 25 25 13 3 15 8 4 4 4 3 4 4 6 9 15 23 35 51 66 71 77 75 82 82 87 87 86 92 99
26 25 17 11 20 15 17 18 13 13 17 22 29 24 30 13 5 5 4 8 9 8 6 8 10 10 10 10 9 10 14 21 30 45 65 66 74 79 87 90 94 92 97 97
20 19 5 4 17 15 16 14 12 14 13 12 16 12 13 16 17 13 12 9 10 13 14 14 15 15 15 15 14 15 16 19 22 28 41 60 68 72 82 85 90 96 99 104
16 18 8 12 14 10 9 14 13 16 27 21 17 18 19 16 14 21 20 14 12 15 21 22 20 19 18 17 18 18 19 21 23 25 29 39 55 78 77 81 81 93 95 93
11 21 17 18 7 26 28 18 17 14 19 28 28 35 24 19 16 11 12 4 9 17 25 30 29 26 24 23 23 23 20 24 25 26 28 30 37 53 76 89 84 83 89 87
16 16 27 7 18 26 15 18 20 16 19 22 27 24 6 9 8 5 17 29 26 22 27 32 31 32 29 27 25 27 26 26 27 28 29 31 32 37 50 67 81 89 88 86
20 11 21 35 34 33 26 36 33 20 22 25 26 31 35 31 36 37 25 37 30 30 42 44 39 35 32 29 26 26 27 28 30 31 30 29 30 30 34 49 63 73 83 83
11 10 19 22 24 20 18 32 29 29 28 39 31 34 31 40 42 51 42 36 41 40 46 44 41 37 33 32 29 26 24 28 31 31 32 29 28 29 29 43 53 59 72 89
31 25 33 31 39 30 20 27 27 30 25 34 37 48 46 43 44 47 57 57 54 45 52 53 47 40 35 34 33 27 24 23 28 30 30 30 29 31 32 34 51 62 59 73
13 25 30 41 45 45 45 43 45 48 42 40 45 49 47 48 49 55 67 60 59 61 57 60 55 43 40 36 36 32 27 23 24 30 30 30 31 32 33 33 31 58 58 62
24 30 27 38 37 43 49 52 48 48 54 53 53 54 54 65 68 62 63 64 57 54 52 57 58 46 42 42 41 36 30 24 26 32 35 34 33 33 35 33 32 30 62 61
30 25 19 45 31 36 36 36 44 50 52 52 49 50 46 47 45 50 58 58 56 55 52 54 56 53 45 47 43 41 33 27 29 31 35 39 39 37 36 37 33 29 30 55
36 28 20 32 24 40 39 36 43 48 49 47 44 42 45 48 62 68 69 64 63 61 59 56 59 61 53 48 50 47 41 36 34 39 38 40 45 45 42 40 39 34 29 31
37 31 18 24 29 39 61 41 37 39 47 38 41 40 44 59 59 55 60 62 55 56 59 57 60 57 51 49 53 52 46 42 40 44 44 42 45 50 50 47 43 41 39 34
21 31 25 25 32 39 52 36 36 28 38 32 41 38 32 37 22 24 45 43 44 44 43 45 49 43 41 45 46 53 54 49 48 48 51 52 50 49 54 54 52 50 48 46
8 13 32 31 28 32 41 39 41 30 40 27 32 38 39 30 36 59 64 63 59 53 45 40 37 39 44 40 40 56 61 63 59 58 64 61 57 54 54 58 59 58 57 55
20 13 19 18 29 33 19 32 31 32 42 38 50 57 58 57 62 61 55 57 60 56 48 39 37 43 53 52 51 58 63 78 70 72 73 70 62 63 60 59 62 63 62 65
25 29 17 21 19 28 31 37 46 48 53 70 59 59 56 56 56 56 53 51 51 48 47 48 42 50 61 61 55 57 77 77 72 73 79 80 73 69 67 64 63 67 67 66
31 34 27 29 46 55 65 73 67 59 62 56 54 54 55 59 56 49 44 37 39 44 49 50 47 52 62 72 66 74 84 76 75 80 85 87 86 83 70 68 69 70 73 74
25 18 26 28 50 61 77 66 73 68 57 56 53 54 55 56 56 42 39 42 48 56 62 60 63 65 74 82 84 88 87 71 74 78 89 90 90 91 89 82 75 76 79 79
36 48 25 29 57 45 60 58 58 56 58 57 55 60 62 49 40 34 39 40 47 57 62 66 69 75 89 93 98 101 82 68 75 83 89 85 78 81 86 88 91 83 83 85
Wind_Direction_500mb
334 291 251 261 242 267 293 288 274 282 341 296 270 273 267 263 258 254 258 253 251 249 249 248 248 245 239 241 236 231 228 226 225 225 226 225 226 232 232 232 233 228 227 226
283 257 330 11 312 278 265 263 262 268 272 301 278 271 271 265 260 260 258 258 258 260 256 251 250 249 242 238 239 239 232 229 228 227 228 231 233 232 237 237 234 239 231 228
303 317 289 278 286 281 254 258 271 271 264 250 273 274 263 252 247 249 254 255 258 259 259 257 252 247 245 246 243 240 235 231 229 228 233 235 232 239 235 236 236 231 240 232
287 326 304 286 269 260 268 274 292 272 265 263 228 282 298 283 232 239 251 246 245 248 246 249 252 246 243 245 239 236 237 237 232 225 227 232 232 230 231 234 233 236 236 240
278 320 315 298 297 306 281 356 287 278 274 273 262 263 281 249 256 262 262 248 206 14 190 189 203 214 236 250 243 242 239 236 234 235 227 228 231 232 234 236 237 235 239 237
277 293 279 293 303 281 271 282 265 248 248 247 246 237 263 253 261 299 193 39 112 117 105 73 14 1 319 295 269 257 248 244 240 234 232 228 230 233 232 233 235 238 238 237
321 286 269 274 284 246 239 255 268 227 221 247 246 238 239 195 151 97 53 105 88 84 58 25 10 358 348 331 310 294 276 267 257 247 236 229 231 231 233 229 233 236 237 237
305 323 325 128 270 317 298 283 283 298 276 301 358 224 261 49 60 51 124 120 99 63 33 16 359 349 341 337 325 309 307 297 280 270 255 243 230 234 233 234 230 234 238 242
317 285 312 271 280 304 2 251 333 303 285 269 261 260 260 148 142 131 129 121 78 46 23 5 350 338 333 328 323 320 310 311 304 286 275 261 248 235 235 234 233 231 233 236
302 289 292 324 280 255 246 323 286 236 268 268 269 269 271 167 169 153 140 87 346 338 342 340 335 328 320 315 316 315 310 307 310 303 290 279 265 254 241 235 235 235 233 232
288 255 276 238 240 265 235 241 236 271 275 283 275 267 349 78 121 255 299 304 297 296 313 318 311 309 300 300 300 304 307 306 303 307 304 294 284 268 250 241 238 235 236 233
266 289 279 276 280 280 269 274 264 249 263 242 253 261 288 289 289 285 297 286 281 282 304 309 302 298 285 283 284 293 297 300 300 303 307 307 297 290 266 246 244 242 237 236
354 249 283 275 264 226 249 252 248 261 275 265 271 272 275 285 289 293 282 268 276 286 293 298 293 291 279 275 277 285 290 296 300 303 306 308 309 300 286 249 239 246 248 236
294 260 261 272 281 298 260 285 265 256 259 260 255 265 262 267 276 280 280 279 282 283 287 286 286 280 270 266 269 275 282 293 301 307 311 308 306 308 308 292 249 243 243 246
246 260 265 270 274 276 274 259 255 266 259 256 262 267 275 279 278 284 290 293 284 276 282 286 280 275 264 263 261 265 272 283 296 313 319 316 311 308 310 313 288 241 246 242
251 269 282 283 281 279 276 271 272 267 263 256 256 260 265 271 278 278 273 273 278 286 279 278 277 273 263 258 252 254 263 271 286 305 313 319 321 317 311 311 316 282 247 248
263 266 263 270 283 294 279 255 256 260 262 262 263 267 278 280 273 272 279 288 291 288 279 275 275 273 266 257 249 245 251 259 279 299 312 318 318 320 318 314 313 315 287 249
251 246 246 267 283 269 267 261 254 260 267 271 274 272 273 273 278 282 282 283 278 278 278 271 269 267 269 258 247 243 245 258 276 291 303 311 313 316 316 318 316 311 309 276
231 246 257 250 252 270 278 271 274 279 276 273 274 282 285 285 284 278 276 276 281 277 273 267 264 265 269 261 251 238 243 260 275 285 292 301 305 308 311 311 313 312 308 303
228 234 233 243 257 266 269 289 292 296 278 268 275 276 297 294 285 285 292 287 288 285 276 271 266 260 260 269 246 237 246 261 273 282 293 295 297 300 304 306 306 310 307 304
203 214 231 240 251 260 270 278 279 264 266 278 311 306 296 294 287 289 291 283 285 288 283 274 271 266 273 276 256 242 249 259 275 287 290 290 287 293 297 299 299 301 303 300
205 213 231 238 249 264 250 257 247 262 277 293 300 301 295 291 286 281 279 281 284 284 285 270 270 276 284 280 277 267 266 267 271 279 283 284 284 291 292 293 294 295 297 299
240 228 234 221 257 265 263 277 279 284 292 289 281 282 286 287 284 282 277 279 281 282 280 277 272 275 280 278 268 265 268 269 271 275 278 281 285 286 287 287 287 290 291 290
246 241 251 266 261 260 267 273 271 271 283 276 280 278 286 281 284 283 282 282 280 279 279 282 279 276 279 280 277 272 272 277 278 277 276 279 282 283 280 281 283 284 285 287
248 243 233 249 259 269 266 268 270 272 273 271 270 273 282 280 280 273 277 277 273 277 280 282 285 285 285 285 282 279 278 277 274 275 276 277 278 279 282 280 277 278 279 281
231 240 234 242 259 258 275 280 281 282 283 281 278 280 280 273 270 278 274 271 273 278 284 286 286 287 289 287 284 280 279 274 271 271 272 272 272 275 279 280 281 278 276 275
Wind_Speed_850mb
12 11 14 19 23 30 30 34 33 29 7 12 30 39 37 41 45 42 43 46 47 47 40 39 38 36 37 37 40 50 51 52 55 59 64 68 79 79 73 76 76 76 72 68
15 18 18 6 11 20 25 32 40 37 36 20 34 49 44 43 47 55 57 60 60 55 50 46 47 46 45 41 40 41 45 52 58 60 65 72 72 84 86 84 81 81 75 79
13 19 7 12 13 20 28 29 29 30 21 28 33 50 47 47 63 67 66 65 63 60 58 54 48 45 43 41 42 49 49 48 54 60 62 65 66 65 76 87 86 83 83 83
8 10 12 19 27 26 32 29 23 24 24 23 4 20 29 8 12 18 29 32 38 41 35 27 26 31 31 28 33 45 52 55 60 58 65 69 78 78 78 82 92 94 89 90
17 17 18 22 19 16 25 13 18 25 28 30 37 24 23 33 28 22 22 22 7 1 4 8 6 6 10 13 22 29 41 55 66 70 73 69 78 82 77 80 85 92 93 91
28 24 14 19 22 23 21 19 26 24 20 20 35 31 25 25 25 13 3 15 8 4 4 4 3 4 4 6 9 15 23 35 51 66 71 77 75 82 82 87 87 86 92 99
26 25 17 11 20 15 17 18 13 13 17 22 29 24 30 13 5 5 4 8 9 8 6 8 10 10 10 10 9 10 14 21 30 45 65 66 74 79 87 90 94 92 97 97
20 19 5 4 17 15 16 14 12 14 13 12 16 12 13 16 17 13 12 9 10 13 14 14 15 15 15 15 14 15 16 19 22 28 41 60 68 72 82 85 90 96 99 104
16 18 8 12 14 10 9 14 13 16 27 21 17 18 19 16 14 21 20 14 12 15 21 22 20 19 18 17 18 18 19 21 23 25 29 39 55 78 77 81 81 93 95 93
11 21 17 18 7 26 28 18 17 14 19 28 28 35 24 19 16 11 12 4 9 17 25 30 29 26 24 23 23 23 20 24 25 26 28 30 37 53 76 89 84 83 89 87
16 16 27 7 18 26 15 18 20 16 19 22 27 24 6 9 8 5 17 29 26 22 27 32 31 32 29 27 25 27 26 26 27 28 29 31 32 37 50 67 81 89 88 86
20 11 21 35 34 33 26 36 33 20 22 25 26 31 35 31 36 37 25 37 30 30 42 44 39 35 32 29 26 26 27 28 30 31 30 29 30 30 34 49 63 73 83 83
11 10 19 22 24 20 18 32 29 29 28 39 31 34 31 40 42 51 42 36 41 40 46 44 41 37 33 32 29 26 24 28 31 31 32 29 28 29 29 43 53 59 72 89
31 25 33 31 39 30 20 27 27 30 25 34 37 48 46 43 44 47 57 57 54 45 52 53 47 40 35 34 33 27 24 23 28 30 30 30 29 31 32 34 51 62 59 73
13 25 30 41 45 45 45 43 45 48 42 40 45 49 47 48 49 55 67 60 59 61 57 60 55 43 40 36 36 32 27 23 24 30 30 30 31 32 33 33 31 58 58 62
24 30 27 38 37 43 49 52 48 48 54 53 53 54 54 65 68 62 63 64 57 54 52 57 58 46 42 42 41 36 30 24 26 32 35 34 33 33 35 33 32 30 62 61
30 25 19 45 31 36 36 36 44 50 52 52 49 50 46 47 45 50 58 58 56 55 52 54 56 53 45 47 43 41 33 27 29 31 35 39 39 37 36 37 33 29 30 55
36 28 20 32 24 40 39 36 43 48 49 47 44 42 45 48 62 68 69 64 63 61 59 56 59 61 53 48 50 47 41 36 34 39 38 40 45 45 42 40 39 34 29 31
37 31 18 24 29 39 61 41 37 39 47 38 41 40 44 59 59 55 60 62 55 56 59 57 60 57 51 49 53 52 46 42 40 44 44 42 45 50 50 47 43 41 39 34
21 31 25 25 32 39 52 36 36 28 38 32 41 38 32 37 22 24 45 43 44 44 43 45 49 43 41 45 46 53 54 49 48 48 51 52 50 49 54 54 52 50 48 46
8 13 32 31 28 32 41 39 41 30 40 27 32 38 39 30 36 59 64 63 59 53 45 40 37 39 44 40 40 56 61 63 59 58 64 61 57 54 54 58 59 58 57 55
20 13 19 18 29 33 19 32 31 32 42 38 50 57 58 57 62 61 55 57 60 56 48 39 37 43 53 52 51 58 63 78 70 72 73 70 62 63 60 59 62 63 62 65
25 29 17 21 19 28 31 37 46 48 53 70 59 59 56 56 56 56 53 51 51 48 47 48 42 50 61 61 55 57 77 77 72 73 79 80 73 69 67 64 63 67 67 66
31 34 27 29 46 55 65 73 67 59 62 56 54 54 55 59 56 49 44 37 39 44 49 50 47 52 62 72 66 74 84 76 75 80 85 87 86 83 70 68 69 70 73 74
25 18 26 28 50 61 77 66 73 68 57 56 53 54 55 56 56 42 39 42 48 56 62 60 63 65 74 82 84 88 87 71 74 78 89 90 90 91 89 82 75 76 79 79
36 48 25 29 57 45 60 58 58 56 58 57 55 60 62 49 40 34 39 40 47 57 62 66 69 75 89 93 98 101 82 68 75 83 89 85 78 81 86 88 91 83 83 85
Wind_Direction_850mb
334 291 251 261 242 267 293 288 274 282 341 296 270 273 267 263 258 254 258 253 251 249 249 248 248 245 239 241 236 231 228 226 225 225 226 225 226 232 232 232 233 228 227 226
283 257 330 11 312 278 265 263 262 268 272 301 278 271 271 265 260 260 258 258 258 260 256 251 250 249 242 238 239 239 232 229 228 227 228 231 233 232 237 237 234 239 231 228
303 317 289 278 286 281 254 258 271 271 264 250 273 274 263 252 247 249 254 255 258 259 259 257 252 247 245 246 243 240 235 231 229 228 233 235 232 239 235 236 236 231 240 232
287 326 304 286 269 260 268 274 292 272 265 263 228 282 298 283 232 239 251 246 245 248 246 249 252 246 243 245 239 236 237 237 232 225 227 232 232 230 231 234 233 236 236 240
278 320 315 298 297 306 281 356 287 278 274 273 262 263 281 249 256 262 262 248 206 14 190 189 203 214 236 250 243 242 239 236 234 235 227 228 231 232 234 236 237 235 239 237
277 293 279 293 303 281 271 282 265 248 248 247 246 237 263 253 261 299 193 39 112 117 105 73 14 1 319 295 269 257 248 244 240 234 232 228 230 233 232 233 235 238 238 237
321 286 269 274 284 246 239 255 268 227 221 247 246 238 239 195 151 97 53 105 88 84 58 25 10 358 348 331 310 294 276 267 257 247 236 229 231 231 233 229 233 236 237 237
305 323 325 128 270 317 298 283 283 298 276 301 358 224 261 49 60 51 124 120 99 63 33 16 359 349 341 337 325 309 307 297 280 270 255 243 230 234 233 234 230 234 238 242
317 285 312 271 280 304 2 251 333 303 285 269 261 260 260 148 142 131 129 121 78 46 23 5 350 338 333 328 323 320 310 311 304 286 275 261 248 235 235 234 233 231 233 236
302 289 292 324 280 255 246 323 286 236 268 268 269 269 271 167 169 153 140 87 346 338 342 340 335 328 320 315 316 315 310 307 310 303 290 279 265 254 241 235 235 235 233 232
288 255 276 238 240 265 235 241 236 271 275 283 275 267 349 78 121 255 299 304 297 296 313 318 311 309 300 300 300 304 307 306 303 307 304 294 284 268 250 241 238 235 236 233
266 289 279 276 280 280 269 274 264 249 263 242 253 261 288 289 289 285 297 286 281 282 304 309 302 298 285 283 284 293 297 300 300 303 307 307 297 290 266 246 244 242 237 236
354 249 283 275 264 226 249 252 248 261 275 265 271 272 275 285 289 293 282 268 276 286 293 298 293 291 279 275 277 285 290 296 300 303 306 308 309 300 286 249 239 246 248 236
294 260 261 272 281 298 260 285 265 256 259 260 255 265 262 267 276 280 280 279 282 283 287 286 286 280 270 266 269 275 282 293 301 307 311 308 306 308 308 292 249 243 243 246
246 260 265 270 274 276 274 259 255 266 259 256 262 267 275 279 278 284 290 293 284 276 282 286 280 275 264 263 261 265 272 283 296 313 319 316 311 308 310 313 288 241 246 242
251 269 282 283 281 279 276 271 272 267 263 256 256 260 265 271 278 278 273 273 278 286 279 278 277 273 263 258 252 254 263 271 286 305 313 319 321 317 311 311 316 282 247 248
263 266 263 270 283 294 279 255 256 260 262 262 263 267 278 280 273 272 279 288 291 288 279 275 275 273 266 257 249 245 251 259 279 299 312 318 318 320 318 314 313 315 287 249
251 246 246 267 283 269 267 261 254 260 267 271 274 272 273 273 278 282 282 283 278 278 278 271 269 267 269 258 247 243 245 258 276 291 303 311 313 316 316 318 316 311 309 276
231 246 257 250 252 270 278 271 274 279 276 273 274 282 285 285 284 278 276 276 281 277 273 267 264 265 269 261 251 238 243 260 275 285 292 301 305 308 311 311 313 312 308 303
228 234 233 243 257 266 269 289 292 296 278 268 275 276 297 294 285 285 292 287 288 285 276 271 266 260 260 269 246 237 246 261 273 282 293 295 297 300 304 306 306 310 307 304
203 214 231 240 251 260 270 278 279 264 266 278 311 306 296 294 287 289 291 283 285 288 283 274 271 266 273 276 256 242 249 259 275 287 290 290 287 293 297 299 299 301 303 300
205 213 231 238 249 264 250 257 247 262 277 293 300 301 295 291 286 281 279 281 284 284 285 270 270 276 284 280 277 267 266 267 271 279 283 284 284 291 292 293 294 295 297 299
240 228 234 221 257 265 263 277 279 284 292 289 281 282 286 287 284 282 277 279 281 282 280 277 272 275 280 278 268 265 268 269 271 275 278 281 285 286 287 287 287 290 291 290
246 241 251 266 261 260 267 273 271 271 283 276 280 278 286 281 284 283 282 282 280 279 279 282 279 276 279 280 277 272 272 277 278 277 276 279 282 283 280 281 283 284 285 287
248 243 233 249 259 269 266 268 270 272 273 271 270 273 282 280 280 273 277 277 273 277 280 282 285 285 285 285 282 279 278 277 274 275 276 277 278 279 282 280 277 278 279 281
231 240 234 242 259 258 275 280 281 282 283 281 278 280 280 273 270 278 274 271 273 278 284 286 286 287 289 287 284 280 279 274 271 271 272 272 272 275 279 280 281 278 276 275